TimeMDT,TemperatureF,Dew PointF,Humidity,Sea Level PressureIn,VisibilityMPH,Wind Direction,Wind SpeedMPH,Gust SpeedMPH,PrecipitationIn,Events,Conditions,WindDirDegrees,DateUTC
12:53 AM,55.0,34.0,45,29.96,10.0,South,8.1,-,N/A,,Clear,180,2013-09-24 06:53:00
1:53 AM,57.0,36.0,45,29.93,10.0,South,15.0,-,N/A,,Clear,180,2013-09-24 07:53:00
2:53 AM,57.0,35.1,44,29.92,10.0,South,12.7,-,N/A,,Clear,180,2013-09-24 08:53:00
3:53 AM,57.0,35.1,44,29.91,10.0,South,12.7,-,N/A,,Clear,180,2013-09-24 09:53:00
4:53 AM,50.0,34.0,54,29.91,10.0,Calm,Calm,-,N/A,,Clear,0,2013-09-24 10:53:00
5:53 AM,53.1,34.0,48,29.89,10.0,Calm,Calm,-,N/A,,Clear,0,2013-09-24 11:53:00
6:53 AM,52.0,33.1,49,29.88,10.0,Variable,3.5,-,N/A,,Scattered Clouds,0,2013-09-24 12:53:00
7:53 AM,52.0,33.1,49,29.90,10.0,Calm,Calm,-,N/A,,Scattered Clouds,0,2013-09-24 13:53:00
8:53 AM,63.0,32.0,31,29.86,10.0,South,21.9,28.8,N/A,,Scattered Clouds,180,2013-09-24 14:53:00
9:53 AM,68.0,32.0,26,29.83,10.0,South,25.3,35.7,N/A,,Partly Cloudy,180,2013-09-24 15:53:00
10:53 AM,71.1,30.9,23,29.81,10.0,South,27.6,34.5,N/A,,Scattered Clouds,180,2013-09-24 16:53:00
11:53 AM,73.0,30.0,20,29.77,10.0,South,24.2,32.2,N/A,,Clear,180,2013-09-24 17:53:00
12:53 PM,73.0,28.9,20,29.74,10.0,SSW,16.1,24.2,N/A,,Partly Cloudy,210,2013-09-24 18:53:00
1:53 PM,72.0,26.1,18,29.71,10.0,SSW,20.7,26.5,N/A,,Partly Cloudy,200,2013-09-24 19:53:00
2:53 PM,72.0,26.1,18,29.68,10.0,SSW,17.3,23.0,N/A,,Mostly Cloudy,210,2013-09-24 20:53:00
3:15 PM,69.8,28.4,21,29.82,10.0,NW,24.2,29.9,N/A,,Mostly Cloudy,310,2013-09-24 21:15:00
3:53 PM,66.0,30.0,26,29.74,10.0,WNW,12.7,-,N/A,,Mostly Cloudy,290,2013-09-24 21:53:00
4:53 PM,66.0,30.0,26,29.74,10.0,South,8.1,-,N/A,,Mostly Cloudy,170,2013-09-24 22:53:00
5:53 PM,66.9,30.0,25,29.70,10.0,South,6.9,-,N/A,,Mostly Cloudy,190,2013-09-24 23:53:00
6:53 PM,64.0,30.9,29,29.72,10.0,West,6.9,-,N/A,,Scattered Clouds,260,2013-09-25 00:53:00
7:53 PM,59.0,36.0,42,29.74,10.0,WSW,9.2,-,N/A,,Scattered Clouds,240,2013-09-25 01:53:00
8:53 PM,57.0,37.0,47,29.73,10.0,WSW,18.4,-,N/A,,Clear,250,2013-09-25 02:53:00
9:53 PM,55.0,36.0,49,29.71,10.0,WSW,15.0,-,N/A,,Clear,240,2013-09-25 03:53:00
10:53 PM,54.0,36.0,51,29.69,10.0,SSW,9.2,-,N/A,,Scattered Clouds,200,2013-09-25 04:53:00
11:53 PM,54.0,37.9,55,29.69,10.0,South,12.7,19.6,0.01,,Overcast,190,2013-09-25 05:53:00